| time (UTC) | temp C | wind direction | speed KPH | gust KPH | rain 1hr cm | rain 24hr cm | rain mn cm | humidity % | barometer mb |
| 20260508102228 | 2 | 234 | 0.0 | 0.0 | 0.00 | 0.00 | 0.00 | 99 | 1033.6 |
| 20260508101725 | 2 | 234 | 0.0 | 0.0 | 0.00 | 0.00 | 0.00 | 99 | 1033.8 |
| 20260508101222 | 2 | 234 | 0.0 | 0.0 | 0.00 | 0.00 | 0.00 | 99 | 1033.7 |
| 20260508100720 | 2 | 234 | 1.6 | 1.6 | 0.00 | 0.00 | 0.00 | 99 | 1033.5 |
| 20260508100218 | 2 | 345 | 0.0 | 0.0 | 0.00 | 0.00 | 0.00 | 99 | 1033.5 |
| 20260508095714 | 2 | 345 | 0.0 | 1.6 | 0.00 | 0.00 | 0.00 | 99 | 1033.6 |
| 20260508095212 | 2 | 345 | 1.6 | 1.6 | 0.00 | 0.00 | 0.00 | 99 | 1033.5 |
| 20260508094708 | 2 | 345 | 0.0 | 1.6 | 0.00 | 0.00 | 0.00 | 99 | 1033.5 |
| 20260508094205 | 2 | 345 | 0.0 | 0.0 | 0.00 | 0.00 | 0.00 | 98 | 1033.4 |
| 20260508093702 | 2 | 345 | 0.0 | 1.6 | 0.00 | 0.00 | 0.00 | 98 | 1033.4 |
| 20260508093200 | 2 | 345 | 1.6 | 1.6 | 0.00 | 0.00 | 0.00 | 98 | 1033.4 |
| 20260508092657 | 2 | 345 | 0.0 | 1.6 | 0.00 | 0.00 | 0.00 | 98 | 1033.4 |
| 20260508092155 | 2 | 345 | 0.0 | 1.6 | 0.00 | 0.00 | 0.00 | 98 | 1033.3 |
| 20260508091652 | 2 | 235 | 0.0 | 1.6 | 0.00 | 0.00 | 0.00 | 98 | 1033.2 |
| 20260508091149 | 2 | 235 | 0.0 | 0.0 | 0.00 | 0.00 | 0.00 | 98 | 1033.2 |
| 20260508090647 | 2 | 235 | 0.0 | 0.0 | 0.00 | 0.00 | 0.00 | 98 | 1033.2 |
| 20260508090144 | 2 | 235 | 0.0 | 1.6 | 0.00 | 0.00 | 0.00 | 98 | 1033.2 |
| 20260508085639 | 2 | 235 | 0.0 | 0.0 | 0.00 | 0.00 | 0.00 | 98 | 1032.9 |
| 20260508085137 | 2 | 235 | 0.0 | 0.0 | 0.00 | 0.00 | 0.00 | 98 | 1033.1 |
| 20260508084633 | 2 | 235 | 0.0 | 0.0 | 0.00 | 0.00 | 0.00 | 98 | 1033.0 |
| 20260508084130 | 2 | 235 | 0.0 | 0.0 | 0.00 | 0.00 | 0.00 | 98 | 1033.0 |
| 20260508083628 | 2 | 235 | 0.0 | 0.0 | 0.00 | 0.00 | 0.00 | 98 | 1033.0 |
| 20260508083125 | 2 | 235 | 0.0 | 0.0 | 0.00 | 0.00 | 0.00 | 98 | 1032.9 |
| 20260508082620 | 2 | 235 | 0.0 | 0.0 | 0.00 | 0.00 | 0.00 | 98 | 1032.8 |
| 20260508082119 | 2 | 235 | 0.0 | 0.0 | 0.00 | 0.00 | 0.00 | 98 | 1033.0 |
| 20260508081615 | 2 | 235 | 0.0 | 0.0 | 0.00 | 0.00 | 0.00 | 98 | 1032.9 |
| 20260508081111 | 2 | 235 | 0.0 | 0.0 | 0.00 | 0.00 | 0.00 | 98 | 1032.7 |
| 20260508080609 | 2 | 235 | 0.0 | 0.0 | 0.00 | 0.00 | 0.00 | 98 | 1032.8 |
| 20260508080108 | 2 | 235 | 0.0 | 0.0 | 0.00 | 0.00 | 0.00 | 98 | 1032.8 |
| 20260508075603 | 2 | 235 | 0.0 | 0.0 | 0.00 | 0.00 | 0.00 | 97 | 1032.9 |
| 20260508075101 | 2 | 235 | 0.0 | 0.0 | 0.00 | 0.00 | 0.00 | 97 | 1032.8 |
| 20260508074559 | 2 | 235 | 0.0 | 0.0 | 0.00 | 0.00 | 0.00 | 97 | 1032.8 |
| 20260508074055 | 2 | 235 | 0.0 | 0.0 | 0.00 | 0.00 | 0.00 | 97 | 1032.8 |
| 20260508073553 | 2 | 235 | 0.0 | 0.0 | 0.00 | 0.00 | 0.00 | 97 | 1032.7 |
| 20260508073050 | 2 | 235 | 0.0 | 0.0 | 0.00 | 0.00 | 0.00 | 97 | 1032.7 |
| 20260508072545 | 2 | 231 | 0.0 | 0.0 | 0.00 | 0.00 | 0.00 | 97 | 1032.4 |
| 20260508072042 | 2 | 203 | 0.0 | 0.0 | 0.00 | 0.00 | 0.00 | 97 | 1032.4 |
| 20260508071540 | 2 | 203 | 0.0 | 0.0 | 0.00 | 0.00 | 0.00 | 97 | 1032.4 |
| 20260508071038 | 2 | 203 | 0.0 | 0.0 | 0.00 | 0.00 | 0.00 | 97 | 1032.5 |
| 20260508070535 | 2 | 203 | 0.0 | 0.0 | 0.00 | 0.00 | 0.00 | 97 | 1032.5 |
| 20260508070035 | 2 | 203 | 0.0 | 0.0 | 0.00 | 0.00 | 0.00 | 97 | 1032.7 |
| 20260508065531 | 2 | 203 | 0.0 | 0.0 | 0.00 | 0.00 | 0.00 | 97 | 1032.5 |
| 20260508065030 | 2 | 203 | 0.0 | 0.0 | 0.00 | 0.00 | 0.00 | 97 | 1032.4 |
| 20260508064526 | 3 | 203 | 0.0 | 0.0 | 0.00 | 0.00 | 0.00 | 97 | 1032.7 |
| 20260508064024 | 3 | 203 | 0.0 | 0.0 | 0.00 | 0.00 | 0.00 | 97 | 1032.7 |
| 20260508063521 | 3 | 203 | 0.0 | 0.0 | 0.00 | 0.00 | 0.00 | 97 | 1032.5 |
| 20260508063019 | 3 | 203 | 0.0 | 0.0 | 0.00 | 0.00 | 0.00 | 97 | 1032.7 |
| 20260508062516 | 3 | 203 | 0.0 | 0.0 | 0.00 | 0.00 | 0.00 | 97 | 1032.8 |
| 20260508062013 | 3 | 203 | 0.0 | 0.0 | 0.00 | 0.00 | 0.00 | 96 | 1032.5 |
| 20260508061511 | 3 | 203 | 0.0 | 0.0 | 0.00 | 0.00 | 0.00 | 96 | 1032.8 |
| 20260508061007 | 3 | 203 | 1.6 | 1.6 | 0.00 | 0.00 | 0.00 | 96 | 1032.9 |
| 20260508060504 | 3 | 202 | 1.6 | 1.6 | 0.00 | 0.00 | 0.00 | 96 | 1032.7 |
| 20260508060001 | 3 | 203 | 1.6 | 1.6 | 0.00 | 0.00 | 0.00 | 96 | 1032.7 |
| 20260508055457 | 4 | 203 | 0.0 | 0.0 | 0.00 | 0.00 | 0.00 | 96 | 1032.9 |
| 20260508054953 | 4 | 202 | 1.6 | 1.6 | 0.00 | 0.00 | 0.00 | 96 | 1032.8 |
| 20260508054450 | 4 | 212 | 1.6 | 1.6 | 0.00 | 0.00 | 0.00 | 95 | 1032.9 |
| 20260508053947 | 4 | 215 | 1.6 | 1.6 | 0.00 | 0.00 | 0.00 | 95 | 1032.5 |
| 20260508053444 | 4 | 216 | 1.6 | 1.6 | 0.00 | 0.00 | 0.00 | 95 | 1032.7 |
| 20260508052942 | 5 | 216 | 1.6 | 1.6 | 0.00 | 0.00 | 0.00 | 95 | 1032.5 |
| 20260508052439 | 4 | 199 | 0.0 | 0.0 | 0.00 | 0.00 | 0.00 | 95 | 1032.5 |
| 20260508051936 | 4 | 199 | 0.0 | 0.0 | 0.00 | 0.00 | 0.00 | 94 | 1032.3 |
| 20260508051431 | 4 | 199 | 0.0 | 0.0 | 0.00 | 0.00 | 0.00 | 94 | 1032.2 |
| 20260508050928 | 4 | 199 | 0.0 | 0.0 | 0.00 | 0.00 | 0.00 | 94 | 1032.1 |
| 20260508050424 | 5 | 199 | 0.0 | 0.0 | 0.00 | 0.00 | 0.00 | 93 | 1032.2 |
| 20260508045921 | 5 | 199 | 0.0 | 0.0 | 0.00 | 0.00 | 0.00 | 93 | 1032.0 |
| 20260508045418 | 5 | 199 | 0.0 | 0.0 | 0.00 | 0.00 | 0.00 | 93 | 1031.8 |
| 20260508044916 | 5 | 199 | 0.0 | 0.0 | 0.00 | 0.00 | 0.00 | 92 | 1031.7 |
| 20260508044413 | 5 | 199 | 1.6 | 3.2 | 0.00 | 0.00 | 0.00 | 91 | 1031.9 |
| 20260508043908 | 5 | 200 | 0.0 | 1.6 | 0.00 | 0.00 | 0.00 | 90 | 1031.9 |
| 20260508043406 | 5 | 200 | 0.0 | 0.0 | 0.00 | 0.00 | 0.00 | 89 | 1031.9 |
| 20260508042902 | 6 | 200 | 0.0 | 0.0 | 0.00 | 0.00 | 0.00 | 88 | 1031.9 |
| 20260508042400 | 6 | 200 | 0.0 | 1.6 | 0.00 | 0.00 | 0.00 | 88 | 1031.9 |
| 20260508041856 | 6 | 200 | 1.6 | 1.6 | 0.00 | 0.00 | 0.00 | 90 | 1031.8 |
| 20260508041353 | 6 | 200 | 1.6 | 1.6 | 0.00 | 0.00 | 0.00 | 90 | 1031.9 |
| 20260508040849 | 6 | 200 | 1.6 | 1.6 | 0.00 | 0.00 | 0.00 | 88 | 1031.9 |
| 20260508040347 | 7 | 200 | 1.6 | 3.2 | 0.00 | 0.00 | 0.00 | 86 | 1031.8 |
| 20260508035844 | 7 | 201 | 3.2 | 3.2 | 0.00 | 0.00 | 0.00 | 83 | 1031.7 |
| 20260508035341 | 8 | 310 | 0.0 | 1.6 | 0.00 | 0.00 | 0.00 | 73 | 1031.5 |
| 20260508034838 | 7 | 311 | 3.2 | 4.8 | 0.00 | 0.00 | 0.00 | 75 | 1031.5 |
| 20260508034335 | 7 | 298 | 3.2 | 3.2 | 0.00 | 0.00 | 0.00 | 78 | 1031.6 |
| 20260508033832 | 7 | 251 | 0.0 | 1.6 | 0.00 | 0.00 | 0.00 | 78 | 1031.5 |
| 20260508033330 | 8 | 251 | 1.6 | 3.2 | 0.00 | 0.00 | 0.00 | 75 | 1031.6 |
| 20260508032827 | 8 | 318 | 0.0 | 1.6 | 0.00 | 0.00 | 0.00 | 72 | 1031.6 |
| 20260508032325 | 8 | 318 | 0.0 | 0.0 | 0.00 | 0.00 | 0.00 | 72 | 1031.7 |
| 20260508031821 | 8 | 318 | 0.0 | 0.0 | 0.00 | 0.00 | 0.00 | 72 | 1031.4 |
| 20260508031318 | 8 | 318 | 1.6 | 3.2 | 0.00 | 0.00 | 0.00 | 72 | 1031.6 |
| 20260508030814 | 8 | 318 | 1.6 | 1.6 | 0.00 | 0.00 | 0.00 | 69 | 1031.2 |
| 20260508030312 | 9 | 311 | 0.0 | 3.2 | 0.00 | 0.00 | 0.00 | 68 | 1031.2 |
| 20260508025808 | 9 | 283 | 0.0 | 0.0 | 0.00 | 0.00 | 0.00 | 68 | 1031.3 |
| 20260508025306 | 9 | 309 | 0.0 | 3.2 | 0.00 | 0.00 | 0.00 | 67 | 1031.0 |
| 20260508024801 | 10 | 306 | 0.0 | 4.8 | 0.00 | 0.00 | 0.00 | 66 | 1031.2 |
| 20260508024258 | 10 | 323 | 0.0 | 4.8 | 0.00 | 0.00 | 0.00 | 66 | 1030.9 |
| 20260508023755 | 10 | 326 | 3.2 | 3.2 | 0.00 | 0.00 | 0.00 | 65 | 1030.9 |
| 20260508023253 | 10 | 311 | 3.2 | 4.8 | 0.00 | 0.00 | 0.00 | 65 | 1031.0 |
| 20260508022748 | 10 | 313 | 3.2 | 3.2 | 0.00 | 0.00 | 0.00 | 65 | 1030.9 |
| 20260508022245 | 10 | 287 | 0.0 | 3.2 | 0.00 | 0.00 | 0.00 | 65 | 1030.9 |
| 20260508021742 | 10 | 313 | 3.2 | 3.2 | 0.00 | 0.00 | 0.00 | 64 | 1030.7 |
| 20260508021237 | 10 | 331 | 4.8 | 6.4 | 0.00 | 0.00 | 0.00 | 64 | 1030.7 |
| 20260508020735 | 10 | 323 | 3.2 | 4.8 | 0.00 | 0.00 | 0.00 | 63 | 1030.5 |
| 20260508020232 | 10 | 309 | 3.2 | 4.8 | 0.00 | 0.00 | 0.00 | 63 | 1030.3 |
| 20260508015729 | 11 | 328 | 6.4 | 9.7 | 0.00 | 0.00 | 0.00 | 63 | 1030.4 |
| 20260508015226 | 11 | 338 | 6.4 | 9.7 | 0.00 | 0.00 | 0.00 | 62 | 1030.4 |
| 20260508014723 | 11 | 315 | 1.6 | 3.2 | 0.00 | 0.00 | 0.00 | 63 | 1030.4 |
| 20260508014220 | 11 | 291 | 0.0 | 4.8 | 0.00 | 0.00 | 0.00 | 62 | 1030.2 |
| 20260508013715 | 11 | 309 | 1.6 | 3.2 | 0.00 | 0.00 | 0.00 | 63 | 1030.3 |
| 20260508013212 | 11 | 295 | 3.2 | 6.4 | 0.00 | 0.00 | 0.00 | 62 | 1030.0 |
| 20260508012710 | 11 | 328 | 6.4 | 11.3 | 0.00 | 0.00 | 0.00 | 62 | 1030.1 |
| 20260508012206 | 11 | 296 | 1.6 | 4.8 | 0.00 | 0.00 | 0.00 | 63 | 1029.9 |
| 20260508011705 | 11 | 318 | 4.8 | 6.4 | 0.00 | 0.00 | 0.00 | 62 | 1029.8 |
| 20260508011202 | 11 | 305 | 1.6 | 3.2 | 0.00 | 0.00 | 0.00 | 62 | 1030.1 |
| 20260508010658 | 11 | 295 | 0.0 | 3.2 | 0.00 | 0.00 | 0.00 | 62 | 1029.6 |
| 20260508010156 | 11 | 262 | 0.0 | 3.2 | 0.00 | 0.00 | 0.00 | 62 | 1029.7 |
| 20260508005653 | 11 | 248 | 3.2 | 6.4 | 0.00 | 0.00 | 0.00 | 62 | 1029.8 |
| 20260508005150 | 11 | 261 | 1.6 | 1.6 | 0.00 | 0.00 | 0.00 | 63 | 1029.8 |
| 20260508004646 | 11 | 329 | 1.6 | 3.2 | 0.00 | 0.00 | 0.00 | 62 | 1029.7 |
| 20260508004142 | 12 | 271 | 0.0 | 3.2 | 0.00 | 0.00 | 0.00 | 62 | 1029.3 |
| 20260508003639 | 12 | 276 | 0.0 | 3.2 | 0.00 | 0.00 | 0.00 | 62 | 1029.4 |
| 20260508003136 | 12 | 310 | 3.2 | 3.2 | 0.00 | 0.00 | 0.00 | 62 | 1029.4 |
| 20260508002633 | 12 | 272 | 0.0 | 1.6 | 0.00 | 0.00 | 0.00 | 61 | 1029.6 |
| 20260508002131 | 12 | 319 | 6.4 | 9.7 | 0.00 | 0.00 | 0.00 | 59 | 1029.2 |
| 20260508001625 | 12 | 257 | 0.0 | 1.6 | 0.00 | 0.00 | 0.00 | 60 | 1029.4 |
| 20260508001122 | 12 | 276 | 3.2 | 3.2 | 0.00 | 0.00 | 0.00 | 60 | 1029.2 |
| 20260508000617 | 12 | 283 | 1.6 | 1.6 | 0.00 | 0.00 | 0.00 | 60 | 1029.2 |
| 20260508000115 | 13 | 271 | 3.2 | 4.8 | 0.00 | 0.00 | 0.00 | 59 | 1029.1 |
| 20260507235612 | 13 | 284 | 1.6 | 3.2 | 0.00 | 0.00 | 0.00 | 58 | 1029.1 |
| 20260507235109 | 13 | 210 | 3.2 | 14.5 | 0.00 | 0.00 | 0.00 | 57 | 1029.2 |
| 20260507234606 | 13 | 276 | 0.0 | 1.6 | 0.00 | 0.00 | 0.00 | 59 | 1029.1 |
| 20260507234102 | 13 | 293 | 1.6 | 4.8 | 0.00 | 0.00 | 0.00 | 59 | 1029.0 |
| 20260507233559 | 13 | 255 | 3.2 | 4.8 | 0.00 | 0.00 | 0.00 | 59 | 1028.8 |
| 20260507233058 | 13 | 317 | 4.8 | 9.7 | 0.00 | 0.00 | 0.00 | 58 | 1029.0 |
| 20260507232553 | 13 | 336 | 6.4 | 6.4 | 0.00 | 0.00 | 0.00 | 58 | 1028.9 |
| 20260507232051 | 13 | 310 | 3.2 | 6.4 | 0.00 | 0.00 | 0.00 | 57 | 1028.8 |
| 20260507231547 | 13 | 0 | 1.6 | 11.3 | 0.00 | 0.00 | 0.00 | 58 | 1029.0 |
| 20260507231045 | 13 | 318 | 3.2 | 4.8 | 0.00 | 0.00 | 0.00 | 58 | 1028.7 |
| 20260507230541 | 13 | 310 | 6.4 | 9.7 | 0.00 | 0.00 | 0.00 | 56 | 1028.7 |
| 20260507230038 | 15 | 315 | 12.9 | 17.7 | 0.00 | 0.00 | 0.00 | 54 | 1028.7 |
| 20260507225533 | 15 | 355 | 3.2 | 11.3 | 0.00 | 0.00 | 0.00 | 52 | 1028.8 |
| 20260507225030 | 15 | 254 | 1.6 | 3.2 | 0.00 | 0.00 | 0.00 | 55 | 1028.7 |
| 20260507224525 | 15 | 267 | 3.2 | 6.4 | 0.00 | 0.00 | 0.00 | 54 | 1028.6 |
| 20260507224022 | 14 | 246 | 0.0 | 3.2 | 0.00 | 0.00 | 0.00 | 57 | 1028.7 |
| 20260507223519 | 14 | 268 | 0.0 | 3.2 | 0.00 | 0.00 | 0.00 | 59 | 1028.5 |
| 20260507223016 | 14 | 275 | 1.6 | 3.2 | 0.00 | 0.00 | 0.00 | 58 | 1028.6 |
| 20260507222513 | 14 | 259 | 1.6 | 6.4 | 0.00 | 0.00 | 0.00 | 57 | 1028.6 |
| 20260507222009 | 14 | 306 | 3.2 | 3.2 | 0.00 | 0.00 | 0.00 | 58 | 1028.4 |
| 20260507221505 | 14 | 278 | 3.2 | 6.4 | 0.00 | 0.00 | 0.00 | 55 | 1028.4 |
| 20260507221002 | 15 | 271 | 3.2 | 4.8 | 0.00 | 0.00 | 0.00 | 54 | 1028.5 |
| 20260507220500 | 16 | 231 | 0.0 | 4.8 | 0.00 | 0.00 | 0.00 | 54 | 1028.3 |
| 20260507215956 | 15 | 225 | 1.6 | 4.8 | 0.00 | 0.00 | 0.00 | 54 | 1028.4 |
| 20260507215452 | 15 | 280 | 1.6 | 6.4 | 0.00 | 0.00 | 0.00 | 55 | 1028.4 |
| 20260507214950 | 16 | 219 | 1.6 | 6.4 | 0.00 | 0.00 | 0.00 | 53 | 1028.3 |
| 20260507214448 | 16 | 254 | 3.2 | 6.4 | 0.00 | 0.00 | 0.00 | 53 | 1028.2 |
| 20260507213943 | 15 | 248 | 1.6 | 6.4 | 0.00 | 0.00 | 0.00 | 54 | 1028.3 |
| 20260507213440 | 15 | 267 | 6.4 | 9.7 | 0.00 | 0.00 | 0.00 | 55 | 1028.3 |
| 20260507212937 | 15 | 271 | 0.0 | 4.8 | 0.00 | 0.00 | 0.00 | 58 | 1028.2 |
| 20260507212432 | 14 | 263 | 1.6 | 4.8 | 0.00 | 0.00 | 0.00 | 58 | 1027.9 |
| 20260507211930 | 15 | 267 | 4.8 | 9.7 | 0.00 | 0.00 | 0.00 | 57 | 1028.1 |
| 20260507211426 | 15 | 277 | 4.8 | 6.4 | 0.00 | 0.00 | 0.00 | 56 | 1027.9 |
| 20260507210923 | 14 | 273 | 4.8 | 6.4 | 0.00 | 0.00 | 0.00 | 58 | 1027.8 |
| 20260507210420 | 14 | 326 | 4.8 | 14.5 | 0.00 | 0.00 | 0.00 | 59 | 1027.8 |
| 20260507205917 | 14 | 351 | 4.8 | 11.3 | 0.00 | 0.00 | 0.00 | 58 | 1027.8 |
| 20260507205414 | 14 | 348 | 9.7 | 16.1 | 0.00 | 0.00 | 0.00 | 59 | 1027.8 |
| 20260507204910 | 16 | 268 | 3.2 | 9.7 | 0.00 | 0.00 | 0.00 | 55 | 1027.8 |
| 20260507204406 | 15 | 270 | 3.2 | 11.3 | 0.00 | 0.00 | 0.00 | 57 | 1027.7 |
| 20260507203904 | 15 | 223 | 8.0 | 17.7 | 0.00 | 0.00 | 0.00 | 57 | 1027.8 |
| 20260507203402 | 15 | 219 | 9.7 | 22.5 | 0.00 | 0.00 | 0.00 | 54 | 1027.8 |
| 20260507202858 | 15 | 237 | 12.9 | 14.5 | 0.00 | 0.00 | 0.00 | 54 | 1027.9 |
| 20260507202355 | 15 | 291 | 4.8 | 16.1 | 0.00 | 0.00 | 0.00 | 56 | 1028.1 |
| 20260507201850 | 15 | 310 | 4.8 | 12.9 | 0.00 | 0.00 | 0.00 | 58 | 1028.1 |
| 20260507201346 | 15 | 285 | 6.4 | 11.3 | 0.00 | 0.00 | 0.00 | 60 | 1027.9 |
| 20260507200842 | 13 | 317 | 8.0 | 12.9 | 0.00 | 0.00 | 0.00 | 64 | 1028.1 |
| 20260507200338 | 13 | 337 | 14.5 | 29.0 | 0.00 | 0.00 | 0.00 | 62 | 1027.9 |
| 20260507195835 | 13 | 341 | 16.1 | 22.5 | 0.00 | 0.00 | 0.00 | 61 | 1027.8 |
| 20260507195332 | 15 | 328 | 9.7 | 14.5 | 0.00 | 0.00 | 0.00 | 59 | 1027.8 |
| 20260507194829 | 17 | 216 | 11.3 | 16.1 | 0.00 | 0.00 | 0.00 | 53 | 1027.9 |
| 20260507194325 | 17 | 337 | 8.0 | 12.9 | 0.00 | 0.00 | 0.00 | 57 | 1027.6 |
| 20260507193822 | 17 | 326 | 4.8 | 14.5 | 0.00 | 0.00 | 0.00 | 55 | 1027.9 |
| 20260507193320 | 17 | 280 | 9.7 | 12.9 | 0.00 | 0.00 | 0.00 | 53 | 1027.9 |
| 20260507192814 | 16 | 324 | 4.8 | 6.4 | 0.00 | 0.00 | 0.00 | 58 | 1028.1 |
| 20260507192312 | 15 | 309 | 3.2 | 6.4 | 0.00 | 0.00 | 0.00 | 61 | 1027.9 |
| 20260507191808 | 14 | 7 | 6.4 | 14.5 | 0.00 | 0.00 | 0.00 | 63 | 1028.3 |
| 20260507191305 | 15 | 1 | 3.2 | 14.5 | 0.00 | 0.00 | 0.00 | 60 | 1028.2 |
| 20260507190802 | 15 | 257 | 3.2 | 4.8 | 0.00 | 0.00 | 0.00 | 57 | 1028.4 |
| 20260507190300 | 15 | 235 | 4.8 | 9.7 | 0.00 | 0.00 | 0.00 | 58 | 1028.4 |
| 20260507185758 | 14 | 291 | 8.0 | 12.9 | 0.00 | 0.00 | 0.00 | 59 | 1028.4 |
| 20260507185254 | 14 | 278 | 1.6 | 4.8 | 0.00 | 0.00 | 0.00 | 61 | 1028.6 |
| 20260507184752 | 14 | 260 | 6.4 | 9.7 | 0.00 | 0.00 | 0.00 | 61 | 1028.7 |
| 20260507184250 | 14 | 234 | 3.2 | 9.7 | 0.00 | 0.00 | 0.00 | 61 | 1028.7 |
| 20260507183747 | 14 | 276 | 6.4 | 6.4 | 0.00 | 0.00 | 0.00 | 59 | 1028.8 |
| 20260507183243 | 15 | 259 | 3.2 | 6.4 | 0.00 | 0.00 | 0.00 | 62 | 1028.6 |
| 20260507182741 | 14 | 222 | 4.8 | 11.3 | 0.00 | 0.00 | 0.00 | 61 | 1028.4 |
| 20260507182236 | 14 | 275 | 3.2 | 4.8 | 0.00 | 0.00 | 0.00 | 64 | 1028.3 |
| 20260507181733 | 14 | 301 | 1.6 | 3.2 | 0.00 | 0.00 | 0.00 | 66 | 1028.6 |
| 20260507181229 | 14 | 340 | 6.4 | 12.9 | 0.00 | 0.00 | 0.00 | 62 | 1028.6 |
| 20260507180726 | 14 | 4 | 3.2 | 4.8 | 0.00 | 0.00 | 0.00 | 64 | 1028.5 |
| 20260507180223 | 14 | 338 | 8.0 | 11.3 | 0.00 | 0.00 | 0.00 | 64 | 1028.5 |
| 20260507175718 | 14 | 298 | 6.4 | 6.4 | 0.00 | 0.00 | 0.00 | 66 | 1028.6 |
| 20260507175215 | 13 | 250 | 6.4 | 9.7 | 0.00 | 0.00 | 0.00 | 65 | 1028.9 |
| 20260507174713 | 13 | 311 | 4.8 | 12.9 | 0.00 | 0.00 | 0.00 | 66 | 1028.8 |
| 20260507174211 | 13 | 10 | 8.0 | 14.5 | 0.00 | 0.00 | 0.00 | 65 | 1028.7 |
| 20260507173708 | 13 | 316 | 11.3 | 14.5 | 0.00 | 0.00 | 0.00 | 64 | 1028.5 |
| 20260507173205 | 14 | 349 | 4.8 | 14.5 | 0.00 | 0.00 | 0.00 | 65 | 1028.6 |
| 20260507172702 | 13 | 269 | 0.0 | 4.8 | 0.00 | 0.00 | 0.00 | 68 | 1028.7 |
| 20260507172159 | 13 | 315 | 1.6 | 9.7 | 0.00 | 0.00 | 0.00 | 69 | 1028.7 |
| 20260507171658 | 13 | 36 | 6.4 | 11.3 | 0.00 | 0.00 | 0.00 | 67 | 1028.9 |
| 20260507171156 | 13 | 338 | 11.3 | 20.9 | 0.00 | 0.00 | 0.00 | 67 | 1028.9 |
| 20260507170653 | 13 | 351 | 11.3 | 12.9 | 0.00 | 0.00 | 0.00 | 67 | 1028.9 |
| 20260507170150 | 13 | 346 | 12.9 | 20.9 | 0.00 | 0.00 | 0.00 | 69 | 1028.9 |
| 20260507165645 | 13 | 327 | 6.4 | 12.9 | 0.00 | 0.00 | 0.00 | 68 | 1028.9 |
| 20260507165142 | 13 | 336 | 14.5 | 16.1 | 0.00 | 0.00 | 0.00 | 69 | 1028.9 |
| 20260507164638 | 12 | 226 | 6.4 | 6.4 | 0.00 | 0.00 | 0.00 | 70 | 1028.9 |
| 20260507164135 | 12 | 332 | 9.7 | 14.5 | 0.00 | 0.00 | 0.00 | 71 | 1029.2 |
| 20260507163632 | 12 | 340 | 11.3 | 14.5 | 0.00 | 0.00 | 0.00 | 71 | 1029.3 |
| 20260507163130 | 12 | 26 | 6.4 | 9.7 | 0.00 | 0.00 | 0.00 | 69 | 1029.2 |
| 20260507162626 | 12 | 336 | 6.4 | 9.7 | 0.00 | 0.00 | 0.00 | 72 | 1029.2 |
| 20260507162122 | 12 | 229 | 1.6 | 6.4 | 0.00 | 0.00 | 0.00 | 73 | 1029.2 |
| 20260507161618 | 12 | 200 | 3.2 | 6.4 | 0.00 | 0.00 | 0.00 | 72 | 1029.4 |
| 20260507161115 | 12 | 271 | 3.2 | 4.8 | 0.00 | 0.00 | 0.00 | 74 | 1029.6 |
| 20260507160612 | 12 | 352 | 3.2 | 6.4 | 0.00 | 0.00 | 0.00 | 77 | 1029.4 |
| 20260507160108 | 12 | 18 | 6.4 | 9.7 | 0.00 | 0.00 | 0.00 | 75 | 1029.6 |
| 20260507155603 | 12 | 344 | 8.0 | 11.3 | 0.00 | 0.00 | 0.00 | 77 | 1029.6 |
| 20260507155100 | 11 | 333 | 3.2 | 12.9 | 0.00 | 0.00 | 0.00 | 76 | 1029.3 |
| 20260507154557 | 12 | 345 | 9.7 | 14.5 | 0.00 | 0.00 | 0.00 | 79 | 1029.4 |
| 20260507154054 | 11 | 274 | 1.6 | 4.8 | 0.00 | 0.00 | 0.00 | 79 | 1029.6 |
| 20260507153551 | 11 | 359 | 1.6 | 6.4 | 0.00 | 0.00 | 0.00 | 80 | 1029.7 |
| 20260507153048 | 11 | 338 | 6.4 | 9.7 | 0.00 | 0.00 | 0.00 | 78 | 1029.9 |
| 20260507152543 | 11 | 333 | 3.2 | 9.7 | 0.00 | 0.00 | 0.00 | 79 | 1029.7 |
| 20260507152040 | 11 | 319 | 3.2 | 4.8 | 0.00 | 0.00 | 0.00 | 80 | 1029.4 |
| 20260507151536 | 10 | 317 | 3.2 | 3.2 | 0.00 | 0.00 | 0.00 | 81 | 1029.9 |
| 20260507151033 | 10 | 311 | 6.4 | 9.7 | 0.00 | 0.00 | 0.00 | 81 | 1029.7 |
| 20260507150530 | 10 | 6 | 1.6 | 4.8 | 0.00 | 0.00 | 0.00 | 81 | 1029.9 |
| 20260507150027 | 10 | 13 | 0.0 | 3.2 | 0.00 | 0.00 | 0.00 | 81 | 1029.9 |
| 20260507145522 | 10 | 355 | 3.2 | 9.7 | 0.00 | 0.00 | 0.00 | 81 | 1029.8 |
| 20260507145020 | 10 | 6 | 6.4 | 9.7 | 0.00 | 0.00 | 0.00 | 81 | 1029.9 |
| 20260507144516 | 10 | 278 | 1.6 | 4.8 | 0.00 | 0.00 | 0.00 | 81 | 1029.8 |
| 20260507144014 | 10 | 291 | 1.6 | 4.8 | 0.00 | 0.00 | 0.00 | 81 | 1029.9 |
| 20260507143511 | 10 | 346 | 3.2 | 6.4 | 0.00 | 0.00 | 0.00 | 82 | 1029.9 |
| 20260507143008 | 10 | 307 | 1.6 | 11.3 | 0.00 | 0.00 | 0.00 | 83 | 1030.1 |
| 20260507142503 | 10 | 325 | 3.2 | 11.3 | 0.00 | 0.00 | 0.00 | 83 | 1029.9 |
| 20260507142001 | 10 | 319 | 3.2 | 6.4 | 0.00 | 0.00 | 0.00 | 83 | 1030.0 |
| 20260507141456 | 10 | 349 | 8.0 | 11.3 | 0.00 | 0.00 | 0.00 | 83 | 1029.9 |
| 20260507140953 | 10 | 309 | 1.6 | 12.9 | 0.00 | 0.00 | 0.00 | 83 | 1030.0 |
| 20260507140450 | 10 | 27 | 3.2 | 9.7 | 0.00 | 0.00 | 0.00 | 83 | 1029.8 |
| 20260507135948 | 10 | 341 | 6.4 | 9.7 | 0.00 | 0.00 | 0.00 | 84 | 1030.0 |
| 20260507135444 | 10 | 324 | 1.6 | 4.8 | 0.00 | 0.00 | 0.00 | 85 | 1030.0 |
| 20260507134942 | 10 | 335 | 3.2 | 6.4 | 0.00 | 0.00 | 0.00 | 85 | 1029.9 |
| 20260507134438 | 9 | 284 | 1.6 | 9.7 | 0.00 | 0.00 | 0.00 | 85 | 1030.1 |
| 20260507133934 | 9 | 335 | 1.6 | 9.7 | 0.00 | 0.00 | 0.00 | 84 | 1030.2 |
| 20260507133430 | 9 | 339 | 3.2 | 11.3 | 0.00 | 0.00 | 0.00 | 84 | 1030.3 |
| 20260507132929 | 9 | 316 | 9.7 | 12.9 | 0.00 | 0.00 | 0.00 | 85 | 1030.3 |
| 20260507132425 | 9 | 334 | 6.4 | 11.3 | 0.00 | 0.00 | 0.00 | 85 | 1030.3 |
| 20260507131921 | 10 | 305 | 3.2 | 12.9 | 0.00 | 0.00 | 0.00 | 86 | 1030.4 |
| 20260507131418 | 10 | 334 | 3.2 | 4.8 | 0.00 | 0.00 | 0.00 | 87 | 1030.3 |
| 20260507130915 | 10 | 350 | 3.2 | 9.7 | 0.00 | 0.00 | 0.00 | 86 | 1030.2 |
| 20260507130412 | 10 | 36 | 3.2 | 3.2 | 0.00 | 0.00 | 0.00 | 86 | 1030.4 |
| 20260507125911 | 10 | 267 | 1.6 | 3.2 | 0.00 | 0.00 | 0.00 | 87 | 1030.4 |
| 20260507125409 | 10 | 338 | 1.6 | 4.8 | 0.00 | 0.00 | 0.00 | 87 | 1030.6 |
| 20260507124906 | 10 | 321 | 1.6 | 3.2 | 0.00 | 0.00 | 0.00 | 88 | 1030.3 |
| 20260507124401 | 10 | 319 | 3.2 | 4.8 | 0.00 | 0.00 | 0.00 | 88 | 1030.3 |
| 20260507123900 | 10 | 325 | 3.2 | 4.8 | 0.00 | 0.00 | 0.00 | 88 | 1030.3 |
| 20260507123357 | 10 | 265 | 1.6 | 3.2 | 0.00 | 0.00 | 0.00 | 88 | 1030.3 |
| 20260507122853 | 10 | 245 | 0.0 | 4.8 | 0.00 | 0.00 | 0.00 | 88 | 1030.3 |
| 20260507122349 | 10 | 303 | 3.2 | 4.8 | 0.00 | 0.00 | 0.00 | 88 | 1030.3 |
| 20260507121845 | 9 | 311 | 4.8 | 6.4 | 0.00 | 0.00 | 0.00 | 88 | 1030.0 |
| 20260507121341 | 10 | 301 | 4.8 | 9.7 | 0.00 | 0.00 | 0.00 | 88 | 1029.9 |
| 20260507120838 | 10 | 326 | 6.4 | 11.3 | 0.00 | 0.00 | 0.00 | 88 | 1030.2 |
| 20260507120334 | 10 | 319 | 3.2 | 4.8 | 0.00 | 0.00 | 0.00 | 88 | 1030.1 |
| 20260507115831 | 10 | 328 | 6.4 | 11.3 | 0.00 | 0.00 | 0.00 | 88 | 1030.1 |
| 20260507115326 | 10 | 339 | 6.4 | 6.4 | 0.00 | 0.00 | 0.00 | 88 | 1029.9 |
| 20260507114822 | 10 | 270 | 1.6 | 4.8 | 0.00 | 0.00 | 0.00 | 88 | 1029.8 |
| 20260507114319 | 10 | 324 | 8.0 | 12.9 | 0.00 | 0.00 | 0.00 | 88 | 1029.9 |
| 20260507113817 | 10 | 338 | 4.8 | 9.7 | 0.00 | 0.00 | 0.00 | 89 | 1029.9 |
| 20260507113314 | 10 | 333 | 8.0 | 12.9 | 0.00 | 0.00 | 0.00 | 89 | 1030.0 |
| 20260507112811 | 10 | 317 | 3.2 | 6.4 | 0.00 | 0.00 | 0.00 | 90 | 1029.8 |
| 20260507112308 | 10 | 335 | 4.8 | 4.8 | 0.00 | 0.00 | 0.00 | 90 | 1030.0 |
| 20260507111806 | 10 | 310 | 4.8 | 4.8 | 0.00 | 0.00 | 0.00 | 90 | 1029.8 |
| 20260507111302 | 10 | 335 | 6.4 | 9.7 | 0.00 | 0.00 | 0.00 | 91 | 1029.6 |
| 20260507110758 | 10 | 339 | 3.2 | 6.4 | 0.00 | 0.00 | 0.00 | 92 | 1029.7 |
| 20260507110255 | 10 | 336 | 4.8 | 4.8 | 0.00 | 0.00 | 0.00 | 92 | 1029.4 |
| 20260507105752 | 10 | 301 | 6.4 | 9.7 | 0.00 | 0.00 | 0.00 | 92 | 1029.1 |
| 20260507105248 | 10 | 327 | 4.8 | 9.7 | 0.00 | 0.00 | 0.00 | 93 | 1029.6 |
| 20260507104745 | 10 | 318 | 3.2 | 4.8 | 0.00 | 0.00 | 0.00 | 94 | 1029.4 |
| 20260507104242 | 10 | 333 | 8.0 | 12.9 | 0.00 | 0.00 | 0.00 | 94 | 1029.3 |
| 20260507103738 | 10 | 331 | 8.0 | 12.9 | 0.00 | 0.00 | 0.00 | 95 | 1029.2 |
| 20260507103234 | 10 | 325 | 11.3 | 14.5 | 0.00 | 0.00 | 0.00 | 95 | 1029.3 |
| 20260507102730 | 10 | 334 | 6.4 | 9.7 | 0.00 | 0.00 | 0.00 | 95 | 1029.0 |